Andri Sulaeman

Recruteur - Persija
6 Août 2028
Dimanche
Processus

Personnalité

Adaptabilité (15) Ambition (13) Controverse (19) Loyauté (18) Pression (11) Professionnalisme (12) Sportivité (5) Tempérament (17)

Profil

Style d'entraînement Démocratique
Diplôme Continental B
Détermination 3
Gestion des joueurs 6
Motivation 7
Discipline 6
Satisfaction professionnelle
100%
Fatigue
0%
Rôle Recruteur
Salaire 34.7K p/s
Contrat 14.03.2029

Performance

Comportement Bon
Efficacité de l'entraînement
34%
Développement des joueurs
15%
Prévention des blessures
55%
Mise en place tactique
50%

Événements récents

A voté contre une cible de transfert maintenant
A évalué un joueur maintenant
A évalué un joueur maintenant
A évalué un joueur maintenant
A évalué un joueur maintenant
A évalué un joueur maintenant
A évalué un joueur maintenant
A évalué un joueur maintenant

Suivi en cours

492
Joueur Club Statut Capacité Confiance Observé Dernière observation Dernier vote
Ryan Wintle Milton Keynes Dons Actif 125 / 134 40% 4 05.08.2028 -
Filippo Oliana Audace Cerignola Actif 129 / 117 40% 3 05.08.2028 -
Andrea Meroni Mantova Actif 129 / 135 40% 2 05.08.2028 -
Andrea Franzoni Virtus Entella Actif 119 / 115 40% 1 05.08.2028 -
Elías López Aldosivi Actif 118 / 120 40% 1 05.08.2028 -
Brais Martínez Burgos Actif 126 / 108 40% 1 05.08.2028 -
Maxime Leverbe Vicenza Actif 132 / 112 40% 2 04.08.2028 -
Alcides Benítez Belgrano Actif 120 / 129 40% 5 04.08.2028 -
Reeve Frosler Bidvest Wits Actif 118 / 114 40% 1 04.08.2028 -
Bashar Resan Pakhtakor Actif 112 / 123 40% 1 04.08.2028 -
Peter Kioso Oxford United Actif 123 / 118 40% 1 04.08.2028 -
Pedro Souto Temperley Actif 107 / 112 40% 1 04.08.2028 -
Alex Bass Peterborough United Actif 128 / 126 40% 2 03.08.2028 -
Nahuel Galardi Maipú Actif 119 / 127 40% 2 03.08.2028 -
Juan Velázquez Belgrano Actif 117 / 134 40% 2 03.08.2028 -
Matías Ramírez Godoy Cruz Actif 112 / 115 40% 1 03.08.2028 -
John Córdoba Millonarios Actif 128 / 121 40% 1 03.08.2028 -
Gianluca Saro Foggia Actif 130 / 135 40% 1 03.08.2028 -
Patricio Moyano Defensores Actif 126 / 113 40% 6 02.08.2028 -
Antonio Metlika Lecco Actif 123 / 120 40% 2 02.08.2028 -
Julián Palacios Envigado Actif 117 / 122 40% 1 02.08.2028 -
Carlos Benavídez Alavés Actif 142 / 122 40% 1 02.08.2028 -
Ichem Ferrah Livorno Actif 119 / 120 40% 1 02.08.2028 -
Luis Palacios Once Caldas Actif 114 / 119 40% 3 01.08.2028 -
Fernando Bersano Madryn Actif 120 / 114 40% 2 01.08.2028 -
Zé Carlos Gil Vicente Actif 124 / 122 40% 2 01.08.2028 -
Yeferson Rodallega Envigado Actif 118 / 114 40% 4 31.07.2028 -
Baldovino Cimino Cosenza Actif 126 / 132 40% 5 31.07.2028 -
Rayco Persita Refusé 103 / 106 72% 1 31.07.2028 Refuser
Gavin Kilkenny Swindon Town Actif 110 / 119 40% 1 31.07.2028 -
Mateo Bajamich Atlético Tucumán Actif 121 / 119 40% 3 30.07.2028 -
Christian Kouan Benevento Actif 128 / 113 40% 5 30.07.2028 -
Walter Mazzantti Independiente Actif 133 / 130 40% 2 30.07.2028 -
Daniel Phillips Bromley Actif 117 / 119 40% 3 30.07.2028 -
Marco Pagliari Ternana Actif 114 / 129 40% 2 30.07.2028 -
Jacobo Oviedo Actif 135 / 124 40% 1 30.07.2028 -
Franco Ibarra Rosario Central Actif 127 / 133 40% 1 30.07.2028 -
Fedor Chalov PAOK Actif 131 / 141 40% 1 30.07.2028 -
Clemente Montes Santiago Wanderers Actif 120 / 132 40% 4 28.07.2028 -
Marc Baró Leiria Actif 119 / 126 40% 2 28.07.2028 -
Fin Back Wycombe Wanderers Actif 117 / 130 40% 2 28.07.2028 -
Finley Burns Wigan Athletic Actif 121 / 115 40% 1 28.07.2028 -
Adrián Sánchez Belgrano Actif 128 / 118 40% 1 27.07.2028 -
Jon Toral Persik Actif 121 / 121 50% 2 / 1m 26.07.2028 -
Jordan Amissah Burton Albion Actif 126 / 112 40% 2 26.07.2028 -
Matteo Raffaelli Ascoli Actif 120 / 130 40% 3 26.07.2028 -
Stéphane Diarra Alverca Actif 121 / 130 40% 2 26.07.2028 -
Andrea Cagnano Arezzo Actif 124 / 122 40% 3 26.07.2028 -
Renato Sanches Leiria Actif 141 / 134 40% 2 26.07.2028 -
Moses Cobnan Krasnodar Actif 130 / 115 40% 2 26.07.2028 -
Heinz Mörschel Espanyol Actif 121 / 135 40% 1 26.07.2028 -
Uriel Antuna Dinamo Moscow Actif 129 / 138 40% 1 26.07.2028 -
Bailey Peacock-Farrell Blackpool Actif 112 / 113 40% 1 26.07.2028 -
Amos Nondi Qarabag Actif 112 / 116 40% 3 25.07.2028 -
Achraf el Bouchataoui Pro Vercelli Actif 128 / 110 40% 2 25.07.2028 -
Aisar Ahmed Albacete Actif 117 / 113 40% 1 25.07.2028 -
Jorginho Kairat Actif 124 / 117 40% 4 24.07.2028 -
Ilias Bronkhorst Huddersfield Town Actif 129 / 113 40% 8 24.07.2028 -
Paolo Ghiglione Salernitana Actif 125 / 115 40% 4 24.07.2028 -
Riccardo Ladinetti Pontedera Actif 110 / 124 40% 1 24.07.2028 -
Filippo Melegoni Gubbio Actif 123 / 131 40% 3 23.07.2028 -
Maksym Braharu Polissia Actif 127 / 138 40% 1 23.07.2028 -
Ramiro Hernandes Belgrano Actif 117 / 133 40% 1 23.07.2028 -
Eliano Reijnders Persib Actif 111 / 113 40% 1 23.07.2028 -
Riccardo Gagno Vicenza Actif 121 / 128 40% 4 22.07.2028 -
Robert Cook Accrington Stanley Actif 107 / 118 40% 2 22.07.2028 -
Facundo Farías Estudiantes Actif 139 / 124 40% 3 22.07.2028 -
Joel Pereira Reading Actif 117 / 105 40% 2 22.07.2028 -
Franco Díaz Temperley Actif 132 / 127 40% 2 22.07.2028 -
Elías Torres Racing Club Actif 121 / 120 40% 1 22.07.2028 -
Jordan Storey Crewe Alexandra Actif 134 / 129 40% 1 21.07.2028 -
Yeison Suárez Deportivo Pereira Actif 124 / 105 40% 1 20.07.2028 -
Olawale Farayola Alashkert Actif 132 / 115 40% 3 19.07.2028 -
Nicola Mosti Catanzaro Actif 115 / 126 40% 2 18.07.2028 -
Nicolas Previtali Giana Erminio Actif 114 / 110 40% 2 18.07.2028 -
Pietro Fusi Padova Actif 124 / 125 40% 1 18.07.2028 -
Miloš Pantović Panathinaikos Actif 127 / 137 40% 5 17.07.2028 -
Rúben Rodrigues Bolton Wanderers Actif 129 / 121 40% 2 17.07.2028 -
Agustín Palavecino Estudiantes Actif 128 / 109 40% 1 17.07.2028 -
Elia Boseggia Novara Actif 132 / 130 40% 1 17.07.2028 -
Myles Roberts Cambridge United Actif 120 / 112 40% 1 17.07.2028 -
Federico Losas Chacarita Juniors Actif 119 / 117 40% 1 17.07.2028 -
Simone Scuffet Pisa Actif 136 / 127 40% 2 16.07.2028 -
Antonino Viola Catania Actif 115 / 111 40% 2 16.07.2028 -
Pol Tristán Zaragoza Actif 135 / 129 40% 1 16.07.2028 -
Raul Steffens AVS Actif 131 / 129 40% 2 15.07.2028 -
Lucas Fernandes Bolton Wanderers Actif 128 / 124 40% 4 15.07.2028 -
Stephen McMullan Fleetwood Town Actif 104 / 112 40% 3 15.07.2028 -
Kartal Kayra Yılmaz Besiktas Actif 141 / 118 40% 2 15.07.2028 -
Filip Lissah Shrewsbury Town Actif 124 / 130 40% 1 15.07.2028 -
Carlos Marín Albacete Actif 147 / 146 40% 1 15.07.2028 -
Manuel Cicconi Sampdoria Actif 131 / 115 40% 3 14.07.2028 -
Doğukan Sinik Antalyaspor Actif 111 / 114 40% 2 14.07.2028 -
Bogdan Ovsyannikov Orenburg Actif 120 / 116 40% 3 13.07.2028 -
Thomas Vettorel Siracusa Actif 100 / 104 40% 2 13.07.2028 -
Davide Barosi Campobasso Actif 112 / 110 40% 1 13.07.2028 -
Ignacio Saavedra Sochi Actif 131 / 123 40% 3 12.07.2028 -
Davide Buglio Crotone Actif 126 / 118 40% 5 12.07.2028 -
Tomás Pozzo Godoy Cruz Actif 128 / 123 40% 2 12.07.2028 -
Giacomo Calò Cesena Actif 123 / 129 40% 2 11.07.2028 -
Gennaro Tutino Sampdoria Actif 137 / 128 40% 8 10.07.2028 -
Iker Pozo Rodina Actif 119 / 133 40% 4 09.07.2028 -
Rustam Yatimov Rostov Actif 122 / 127 40% 2 09.07.2028 -
Denis Makarov Krylya Sovetov Actif 118 / 126 40% 2 09.07.2028 -
Francisco González Metilli Belgrano Actif 131 / 134 40% 2 09.07.2028 -
Alessandro Di Pardo Sampdoria Actif 115 / 123 40% 1 09.07.2028 -
Tatsuki Seko Stoke City Actif 123 / 112 40% 1 09.07.2028 -
Igor Obukhov Fakel Actif 116 / 99 40% 1 09.07.2028 -
Blas Armoa Gimnasia y Esgrima Actif 128 / 108 40% 4 07.07.2028 -
Ulises Sánchez Gimnasia y Esgrima Actif 130 / 134 40% 1 07.07.2028 -
Lorenzo Carissoni Padova Actif 132 / 132 40% 3 06.07.2028 -
Jamal Lewis Preston Actif 127 / 122 40% 1 06.07.2028 -
Diego Rosa APOEL Actif 122 / 137 40% 1 06.07.2028 -
Pol Valentín Cambridge United Actif 119 / 124 40% 1 06.07.2028 -
Alejo Dramisino Atlanta Actif 119 / 109 40% 1 05.07.2028 -
Alexandr Kovalenko Sochi Actif 127 / 126 40% 2 04.07.2028 -
Iñaki Larthirigoyen San Telmo Actif 118 / 120 40% 1 04.07.2028 -
Maxime Sivis Orenburg Actif 129 / 119 40% 5 03.07.2028 -
Nicolás Retamar Ferro Carril Oeste Actif 120 / 116 40% 1 03.07.2028 -
Thomas Sandon Vicenza Actif 113 / 132 40% 2 02.07.2028 -
Daniel Barrea Godoy Cruz Actif 131 / 115 40% 15 01.07.2028 -
Ignacio Ramírez Newell's Old Boys Actif 135 / 115 40% 5 01.07.2028 -
Cristian Santander Barranquilla Actif 125 / 127 40% 1 01.07.2028 -
Alex Palmer Ipswich Town Actif 138 / 123 40% 1 01.07.2028 -
Corey Addai Barnsley Actif 116 / 107 40% 4 30.06.2028 -
Josh Key Swansea City Actif 127 / 131 40% 4 30.06.2028 -
Andrea Zaccagno Torres Actif 127 / 129 40% 1 30.06.2028 -
Luca Villa Salernitana Actif 108 / 111 40% 1 29.06.2028 -
Marco Imperiale Catanzaro Actif 120 / 129 40% 1 28.06.2028 -
Francesco D'Alterio Ternana Actif 125 / 111 40% 3 27.06.2028 -
Baba Adeeko Wigan Athletic Actif 107 / 107 40% 1 27.06.2028 -
Kevin Chacón Alianza Petrolera Actif 111 / 119 40% 1 27.06.2028 -
Leonardo Candellone Juve Stabia Actif 130 / 128 40% 8 25.06.2028 -
Yhormar Hurtado Lechia Actif 118 / 119 40% 1 25.06.2028 -
Yuber Quiñónes Patriotas Actif 120 / 117 40% 1 25.06.2028 -
Gianmarco Vannucchi Benevento Actif 115 / 129 40% 1 25.06.2028 -
Emiliano González Almagro Actif 117 / 116 40% 1 25.06.2028 -
Alfie Whiteman Newport County Actif 123 / 122 40% 5 24.06.2028 -
Evgeny Latyshonok Nizhniy Novgorod Actif 126 / 122 40% 1 24.06.2028 -
Sirlord Conteh Heidenheim Actif 132 / 134 40% 8 23.06.2028 -
Maximiliano Salas River Plate Actif 122 / 131 40% 2 23.06.2028 -
Edwuin Cetré Estudiantes Actif 135 / 126 40% 1 23.06.2028 -
Thiago Cardozo Unión de Santa Fe Actif 136 / 121 40% 1 23.06.2028 -
Konstantin Kuchaev Rostov Actif 119 / 125 40% 1 23.06.2028 -
Cesare Galeotti Trapani Actif 123 / 119 40% 1 21.06.2028 -
Andrea Sergio Mazza Giana Erminio Actif 104 / 109 40% 1 21.06.2028 -
Alan Sosa Tigre Actif 115 / 127 40% 1 21.06.2028 -
Fabrizio Caligara Catania Actif 131 / 124 40% 1 19.06.2028 -
Nikolai Rehnen Grimsby Town Actif 105 / 108 40% 1 19.06.2028 -
Nathan Bishop AFC Wimbledon Actif 114 / 110 40% 1 19.06.2028 -
Matteo Sorzi Carpi Actif 116 / 101 40% 2 18.06.2028 -
Davide Mastrantonio Latina Actif 101 / 111 40% 1 18.06.2028 -
Facundo Sanguinetti Banfield Actif 133 / 137 40% 1 18.06.2028 -
Jack Taylor Doncaster Rovers Actif 132 / 124 40% 1 18.06.2028 -
Massimo Bertagnoli Reggiana Actif 112 / 130 40% 2 17.06.2028 -
Edoardo Soleri Bari Actif 123 / 127 40% 1 17.06.2028 -
Zach Hemming Chesterfield Actif 127 / 113 40% 4 16.06.2028 -
Samuele Perisan Reggiana Actif 119 / 113 40% 3 16.06.2028 -
Gabriele Baldi Guidonia Montecelio Actif 112 / 124 40% 2 16.06.2028 -
Santiago Longo Belgrano Actif 120 / 134 40% 1 16.06.2028 -
Mauro Rodrigues Botev Plovdiv Actif 116 / 113 40% 1 16.06.2028 -
Paulo Vitor Akron Actif 124 / 115 40% 5 15.06.2028 -
Niccolò Chiorra Casarano Actif 104 / 111 40% 3 15.06.2028 -
Tomás O'Connor Gimnasia y Esgrima Actif 130 / 116 40% 2 15.06.2028 -
Evgeny Staver Rubin Actif 113 / 127 40% 1 15.06.2028 -
Matías Daniele Belgrano Actif 126 / 120 40% 1 15.06.2028 -
Davide Di Molfetta Union Brescia Actif 120 / 127 40% 2 14.06.2028 -
Emiliano Pattarello Arezzo Actif 119 / 108 40% 1 14.06.2028 -
Gastón González Defensa y Justicia Actif 114 / 116 40% 2 13.06.2028 -
Agustín Hausch Defensa y Justicia Actif 116 / 134 40% 4 12.06.2028 -
Husain Norchayev Navbahor Actif 118 / 111 40% 2 12.06.2028 -
David Okereke Cremonese Actif 123 / 131 40% 7 10.06.2028 -
Gianmarco Cangiano Pescara Actif 129 / 123 40% 2 10.06.2028 -
Federico Bisanz Atlanta Actif 114 / 106 40% 1 09.06.2028 -
Zelimkhan Bakaev Lokomotiv Moscow Actif 114 / 118 40% 1 08.06.2028 -
Gastón Verón Argentinos Juniors Actif 125 / 134 40% 1 04.06.2028 -
Kike Pérez Venezia Actif 129 / 122 40% 1 04.06.2028 -
Tommaso Nobile Renate Actif 109 / 104 40% 1 04.06.2028 -
Ilja Zhbanov Cobresal Refusé 90 / 94 93% 1 01.06.2028 Refuser
Mauro Méndez Tigre Actif 116 / 120 40% 1 30.05.2028 -
Gilson Benchimol Baltika Actif 126 / 122 40% 2 29.05.2028 -
Mikhail Ignatov Sochi Actif 119 / 120 40% 6 29.05.2028 -
Chinedu Geoffrey Krylya Sovetov Actif 118 / 112 40% 6 29.05.2028 -
Eric Ramírez Unión de Santa Fe Actif 116 / 115 40% 2 28.05.2028 -
Álex Arce Independiente Rivadavia Actif 127 / 126 40% 3 28.05.2028 -
Denzel Jubitana Neftchi Actif 126 / 112 40% 2 27.05.2028 -
Ryan Hardie Wrexham Actif 111 / 114 40% 2 26.05.2028 -
Nahuel Bustos Talleres Actif 134 / 130 40% 2 24.05.2028 -
Umeh Emmanuel Zurich Actif 121 / 118 40% 4 23.05.2028 -
Roberto Ramírez Godoy Cruz Actif 111 / 126 40% 1 23.05.2028 -
Marcelo Torres Gimnasia La Plata Actif 119 / 119 40% 3 22.05.2028 -
Randy Nteka Krasnodar Actif 130 / 118 40% 9 21.05.2028 -
Will Mannion Charlton Athletic Actif 119 / 128 40% 3 19.05.2028 -
Emil Riis Leicester City Actif 120 / 133 40% 1 19.05.2028 -
Alejandro Rodríguez Melgar Actif 134 / 125 40% 1 19.05.2028 -
Anton Mitryushkin Lokomotiv Moscow Actif 123 / 132 40% 3 18.05.2028 -
Evan Kurniawan Persita Actif 85 / 90 42% 1 / 1m 17.05.2028 -
Mohamed Konaté Akhmat Grozny Actif 121 / 124 40% 10 16.05.2028 -
Lucas Ríos Koper Actif 111 / 104 40% 1 16.05.2028 -
Rodrigo Bogarín Barracas Central Actif 125 / 117 40% 2 15.05.2028 -
Remco Balk Twente Actif 116 / 110 40% 5 15.05.2028 -
Ettore Gliozzi Mantova Actif 122 / 116 40% 6 13.05.2028 -
Juan Manuel Gutiérrez Defensa y Justicia Actif 126 / 128 40% 2 13.05.2028 -
Alexei Rojas Fedorushchenko Barrow AFC Actif 128 / 114 40% 1 13.05.2028 -
Nicolás Cordero Aldosivi Actif 124 / 124 40% 1 11.05.2028 -
Álvaro Busso Vélez Actif 106 / 129 40% 1 11.05.2028 -
Flavio Junior Bianchi Bari Actif 118 / 123 40% 4 08.05.2028 -
Rafael Santos Borré River Plate Actif 125 / 117 40% 2 08.05.2028 -
Renaldo Cephas Gabala Actif 115 / 107 40% 1 08.05.2028 -
Luca Vido Union Brescia Actif 106 / 103 40% 8 07.05.2028 -
Esteban Obregón Montevideo City Torque Actif 128 / 113 40% 2 05.05.2028 -
Joca Olympiacos Actif 130 / 122 40% 2 05.05.2028 -
Lamine Guèye Exeter City Actif 126 / 122 40% 2 04.05.2028 -
Stefano Filigheddu Monopoli Actif 121 / 120 40% 3 01.05.2028 -
Jonás Acevedo Instituto Actif 124 / 129 40% 5 01.05.2028 -
Antony Alonso Deportivo Riestra Actif 126 / 119 40% 2 01.05.2028 -
Emanuele Pecorino Catanzaro Actif 125 / 118 40% 1 28.04.2028 -
Nikolay Komlichenko Lokomotiv Moscow Actif 122 / 132 40% 6 27.04.2028 -
Luca Gemello Perugia Actif 114 / 105 40% 3 27.04.2028 -
Adolfo Gaich Estudiantes Actif 118 / 128 40% 3 27.04.2028 -
Jack Walton Preston Actif 131 / 117 40% 1 27.04.2028 -
Sam Proctor Salford City Actif 125 / 118 40% 1 27.04.2028 -
Miguel Pereira Persebaya Refusé 115 / 118 40% 1 25.04.2028 Plus d'infos
Francesco Ruocco Mantova Actif 119 / 127 40% 1 25.04.2028 -
Jean Butez Frosinone Actif 148 / 151 40% 1 24.04.2028 -
Kristjan Matošević Triestina Actif 119 / 111 40% 1 24.04.2028 -
Sergio Barlocco Trento Actif 121 / 124 40% 1 24.04.2028 -
Santiago Sala Güemes Actif 123 / 105 40% 1 22.04.2028 -
Jacob Brown Barrow AFC Actif 119 / 111 40% 2 18.04.2028 -
Jhon Murillo Jaguares Actif 122 / 127 40% 2 18.04.2028 -
Alberto Cerri Cesena Actif 111 / 110 40% 5 17.04.2028 -
Giuseppe Panico Foggia Actif 129 / 107 40% 2 15.04.2028 -
Matías Godoy Estudiantes Actif 114 / 122 40% 1 13.04.2028 -
Idrissa Guèye Virtus Entella Actif 122 / 130 40% 4 11.04.2028 -
Tobías Cervera Gimnasia y Esgrima Actif 110 / 127 40% 1 11.04.2028 -
Luca Pandolfi Avellino Actif 108 / 113 40% 1 10.04.2028 -
Tomás Fernández Aldosivi Actif 109 / 108 40% 1 10.04.2028 -
Martin Zlomislić Qarabag Actif 111 / 111 40% 1 09.04.2028 -
Gaspar Duarte Rosario Central Actif 118 / 121 40% 4 06.04.2028 -
Killian Cahill Leyton Orient Actif 108 / 116 40% 2 04.04.2028 -
Fabrizio Sartori Independiente Rivadavia Actif 110 / 122 40% 1 04.04.2028 -
Valerio Boffelli Cavese Actif 116 / 124 40% 1 04.04.2028 -
Nicolás Bolcato Independiente Rivadavia Actif 121 / 126 40% 1 02.04.2028 -
Lucas Román Independiente Actif 121 / 115 40% 2 31.03.2028 -
Favio Cabral Mitre Actif 124 / 123 40% 1 31.03.2028 -
Gaëtan Coucke Sampdoria Actif 136 / 136 40% 2 30.03.2028 -
Kyle Wootton Stockport County Actif 131 / 129 40% 1 30.03.2028 -
William Rovida Pro Patria Actif 118 / 106 40% 1 30.03.2028 -
Luke McGee Tranmere Rovers Actif 109 / 115 40% 1 30.03.2028 -
Vyacheslav Grulev Nizhniy Novgorod Actif 119 / 115 40% 8 28.03.2028 -
Kaique Kenji Fortaleza Actif 111 / 125 40% 4 27.03.2028 -
Luciano Herrera Newell's Old Boys Actif 120 / 125 40% 2 26.03.2028 -
Jaime Báez Trapani Actif 123 / 118 40% 6 25.03.2028 -
Ivan Lomaev Ufa Actif 122 / 115 40% 2 25.03.2028 -
Cade Cowell Guadalajara Actif 124 / 115 40% 2 21.03.2028 -
Ignacio Pussetto Independiente Actif 120 / 122 40% 1 21.03.2028 -
Luca Maniero Cittadella Actif 99 / 100 40% 1 21.03.2028 -
Ronaldo Martínez Talleres Actif 119 / 119 40% 4 19.03.2028 -
George Evans Exeter City Actif 107 / 126 40% 1 15.03.2028 -
Dylan Moody Cheltenham Town Actif 113 / 135 40% 1 13.03.2028 -
Ivan Sergeev Dinamo Moscow Actif 128 / 121 40% 13 11.03.2028 -
Yoshan Valois Lanús Actif 110 / 134 40% 1 11.03.2028 -
Gustavo Del Prete San Lorenzo Actif 117 / 111 40% 1 10.03.2028 -
Andrea Petagna Pisa Actif 121 / 124 40% 7 09.03.2028 -
Matías Cóccaro Newell's Old Boys Actif 119 / 114 40% 1 09.03.2028 -
Alessandro Confente Pisa Actif 120 / 124 40% 1 08.03.2028 -
Luke Southwood Bristol Rovers Actif 110 / 106 40% 1 08.03.2028 -
Santiago Rodríguez Gimnasia y Esgrima Actif 122 / 118 40% 1 05.03.2028 -
Diego Valencia Astana Actif 109 / 112 40% 3 01.03.2028 -
Liam Cullen Swansea City Actif 129 / 132 40% 1 29.02.2028 -
Dardan Shabanhaxhaj Rubin Actif 125 / 118 40% 1 27.02.2028 -
Adam Buksa Udinese Actif 138 / 141 40% 2 25.02.2028 -
Gabriele Gori Ascoli Actif 115 / 124 40% 1 25.02.2028 -
Massimo Zilli Spezia Actif 107 / 114 40% 2 24.02.2028 -
Leonardo Marson Gubbio Actif 122 / 112 40% 1 24.02.2028 -
Daniele Sommariva Gillingham Actif 106 / 113 40% 1 24.02.2028 -
Emanuele Schimmenti Potenza Actif 107 / 107 40% 1 24.02.2028 -
Maksim Samorodov Akhmat Grozny Actif 132 / 114 40% 1 24.02.2028 -
Albion Rrahmani Venezia Actif 139 / 133 40% 1 23.02.2028 -
Federico Bonazzoli Pisa Actif 126 / 123 40% 2 19.02.2028 -
Filippo Manfrin Arzignano Actif 119 / 121 40% 1 19.02.2028 -
Abduvohid Ne'matov Nasaf Actif 123 / 127 40% 1 18.02.2028 -
Botirali Ergashev Neftchi Actif 102 / 102 40% 1 12.02.2028 -
Ilja Pomazun Spartak Moscow Actif 123 / 134 40% 1 10.02.2028 -
Petr Kosarevskiy Sibir Actif 107 / 119 40% 1 08.02.2028 -
Léo Natel Ordabasy Actif 119 / 115 40% 2 06.02.2028 -
Nicola Rauti Vicenza Actif 125 / 116 40% 1 03.02.2028 -
El Mehdi Maouhoub Akhmat Grozny Actif 124 / 117 40% 5 02.02.2028 -
Keita Baldé Monza Actif 113 / 112 40% 1 02.02.2028 -
Sergio Castel Persik Actif 112 / 122 40% 18 30.01.2028 -
Marc Gual Kairat Actif 109 / 120 40% 1 29.01.2028 -
Flamarion Pakhtakor Actif 109 / 113 40% 1 28.01.2028 -
Arthur Augusto Semen Padang Actif 114 / 112 40% 1 25.01.2028 -
Nicolás Benegas Defensores Actif 109 / 115 40% 2 24.01.2028 -
Georgy Melkadze Akhmat Grozny Actif 108 / 113 40% 1 24.01.2028 -
Davide Castelli Virtus Entella Actif 111 / 127 40% 2 19.01.2028 -
Lyndon Dykes Millwall Actif 110 / 130 40% 1 17.01.2028 -
Facundo Lescano Salernitana Actif 109 / 118 40% 5 09.01.2028 -
David Vasco da Gama Actif 119 / 119 40% 1 30.12.2027 -
Enzo Silcan Almagro Actif 106 / 105 40% 1 26.12.2027 -
Mathías de Ritis San Lorenzo Actif 126 / 124 40% 1 26.12.2027 -
Milan Ristovski Bhayangkara Presisi Actif 110 / 100 40% 2 23.12.2027 -
Khetag Khosonov Akron Actif 121 / 127 40% 1 23.12.2027 -
Marvin Çuni Rubin Actif 117 / 119 40% 5 19.12.2027 -
Derik Lacerda Kawasaki Frontale Actif 113 / 136 40% 1 17.12.2027 -
Guglielmo Mignani Benevento Actif 120 / 127 40% 2 14.12.2027 -
Roland Galčík Rio Ave Actif 111 / 115 40% 2 14.12.2027 -
Roman Yezhov Sochi Actif 107 / 120 40% 4 13.12.2027 -
Mohammad Javad Hosseinnejad Dinamo Makhachkala Actif 122 / 117 40% 3 13.12.2027 -
Luca Băsceanu Universitatea Craiova Actif 119 / 120 40% 1 11.12.2027 -
Guillaume Furrer Lecco Actif 105 / 102 40% 1 11.12.2027 -
Luigi Cuppone Virtus Entella Actif 113 / 126 40% 3 10.12.2027 -
Pietro Cianci Arezzo Actif 117 / 110 40% 2 10.12.2027 -
Michael Liguori Catania Actif 115 / 111 40% 1 10.12.2027 -
Dmitry Skopintsev Dinamo Moscow Actif 114 / 122 40% 1 10.12.2027 -
Gabriel Souza Vasco da Gama Actif 112 / 120 40% 1 09.12.2027 -
Temirkan Sundukov Dinamo Makhachkala Actif 124 / 121 40% 1 09.12.2027 -
Roman Vantukh Metalist Actif 126 / 110 40% 1 08.12.2027 -
Tomasz Wójtowicz Lechia Actif 104 / 118 40% 1 08.12.2027 -
Juan Sebastián Herrera Deportivo La Guaira Actif 108 / 100 40% 1 05.12.2027 -
Francesco Salvemini Padova Actif 121 / 123 40% 4 04.12.2027 -
Andrés Alarcón Dinamo Makhachkala Actif 118 / 113 40% 1 04.12.2027 -
Rodrigo Insúa Racing Club Actif 113 / 126 40% 1 04.12.2027 -
Ousseynou Seck Randers Actif 105 / 111 40% 11 02.12.2027 -
Juan Álvarez Arema Actif 109 / 107 40% 2 02.12.2027 Plus d'infos
Arturo Calabresi Crotone Actif 125 / 117 40% 1 30.11.2027 -
Bernard Nguene Standard Liege Actif 104 / 115 40% 2 27.11.2027 -
Matija Popović Fakel Actif 108 / 120 40% 1 26.11.2027 -
François Kamano Sochi Actif 113 / 113 40% 7 22.11.2027 -
Matías Arias Vélez Actif 113 / 114 40% 2 22.11.2027 -
Miroslav Bogosavac Akhmat Grozny Actif 116 / 108 40% 2 20.11.2027 -
Alejo Montero Newell's Old Boys Actif 123 / 124 40% 1 19.11.2027 -
Martin Kramarič Krylya Sovetov Actif 119 / 127 40% 1 18.11.2027 -
Alessandro Capelli Padova Actif 110 / 113 40% 1 17.11.2027 -
Mauricio Vera Bhayangkara Presisi Actif 127 / 114 40% 2 16.11.2027 -
Mauricio Cardillo San Lorenzo Actif 122 / 128 40% 2 15.11.2027 -
Ruslan Bezrukov Rubin Actif 109 / 128 40% 1 13.11.2027 -
Tomás Porra Barracas Central Actif 122 / 124 40% 2 08.11.2027 -
Santiago Martínez Godoy Cruz Actif 109 / 127 40% 3 03.11.2027 -
Joel Medina Independiente Actif 109 / 116 40% 2 03.11.2027 -
Mateo Pérez Curci Independiente Actif 125 / 111 40% 1 31.10.2027 -
Fahd Moufi Baltika Actif 121 / 106 40% 7 30.10.2027 -
Nahuel Arias San Lorenzo Actif 121 / 119 40% 1 30.10.2027 -
Matias Siltanen Malmo FF Actif 134 / 126 40% 1 30.10.2027 -
Tomás Belmonte Boca Juniors Actif 131 / 129 40% 3 28.10.2027 -
Théo Le Normand Andorra Actif 114 / 110 40% 1 28.10.2027 -
Artem Shumanskiy CSKA Moscow Actif 118 / 111 40% 1 27.10.2027 -
Chinonso Offor Baltika Actif 103 / 113 40% 3 26.10.2027 -
Gabriele Moncini Bari Actif 103 / 113 40% 1 25.10.2027 -
Cristián Blanco Slavia Prague Actif 127 / 115 40% 1 25.10.2027 -
Cyle Larin Mallorca Actif 119 / 135 40% 5 24.10.2027 -
Antonio Di Nardo Juve Stabia Actif 124 / 119 40% 1 22.10.2027 -
Mauro Valiente Estudiantes Actif 108 / 101 40% 1 21.10.2027 -
Vladislav Sarveli Nizhniy Novgorod Actif 103 / 110 40% 3 20.10.2027 -
Nikita Kakkoev Nizhniy Novgorod Actif 124 / 117 40% 1 17.10.2027 -
Baton Zabërgja Kryvbas Actif 111 / 108 40% 1 14.10.2027 -
Nicolas Verkooijen PSV Actif 119 / 113 40% 4 12.10.2027 -
Luis Chávez Dinamo Moscow Actif 122 / 141 40% 2 12.10.2027 -
Rodrigo Guth Talleres Actif 119 / 129 40% 1 12.10.2027 -
Wesley Pomba Rukh Actif 125 / 113 40% 3 11.10.2027 -
Damienus Reverson Zurich Actif 106 / 123 40% 1 10.10.2027 -
Adrian Skogmar Malmo FF Actif 123 / 119 40% 2 08.10.2027 -
Eldar Ćivić Baltika Actif 116 / 133 40% 1 04.10.2027 -
Yegor Kortsov Dinamo Brest Actif 115 / 117 40% 1 27.09.2027 -
Armando Méndez Newell's Old Boys Actif 114 / 119 40% 1 23.09.2027 -
Marcelo Weigandt Boca Juniors Actif 111 / 130 40% 2 21.09.2027 -
Gamid Agalarov Orenburg Actif 105 / 104 40% 3 21.09.2027 -
Leonard Costa Independiente Rivadavia Actif 110 / 126 40% 2 20.09.2027 -
André Silva Cruzeiro Actif 133 / 137 40% 1 19.09.2027 -
Marcelo Alves SKA Khabarovsk Actif 104 / 119 40% 1 18.09.2027 -
Alan Forneris Racing Club Actif 112 / 120 40% 1 14.09.2027 -
Kolbeinn Þórðarson IFK Goteborg Actif 105 / 117 40% 1 13.09.2027 -
Leonel Pollacchi San Telmo Actif 110 / 119 40% 1 08.09.2027 -
Cristian Núñez Huracán Actif 105 / 111 40% 1 07.09.2027 -
Martin Sekulić Ural Actif 106 / 116 40% 2 29.08.2027 -
Mikkel Ceïde Bodo/Glimt Actif 125 / 119 40% 1 27.08.2027 -
Taiki Watanabe Kashima Antlers Actif 118 / 114 40% 1 27.08.2027 -
Njabulo Blom Pakhtakor Actif 124 / 114 40% 2 23.08.2027 -
Danilo Santacruz Madura United Actif 108 / 99 40% 3 18.08.2027 -
Jefferson Persebaya Actif 108 / 100 40% 1 18.08.2027 -
Matías Ocampo Persebaya Actif 100 / 112 40% 1 18.08.2027 -
Ezequiel Herrera San Lorenzo Actif 120 / 133 40% 1 17.08.2027 -
Marvin Friedrich Union Berlin Actif 133 / 125 40% 1 17.08.2027 -
Matías Sepúlveda Lanús Actif 122 / 113 40% 1 15.08.2027 -
Francisco Rivera Persebaya Actif 118 / 105 40% 4 12.08.2027 -
Aaron Spetale Defensa y Justicia Actif 118 / 111 40% 1 09.08.2027 -
Miguel Figueiredo Benfica Actif 101 / 127 40% 2 05.08.2027 -
Jorge Millwall Actif 117 / 103 40% 1 05.08.2027 -
Bruno Cabrera Lanús Actif 103 / 119 40% 2 01.08.2027 -
André Luís Mirassol Actif 125 / 118 40% 1 31.07.2027 -
Joaquín Almería Actif 113 / 112 40% 3 30.07.2027 -
Igor Inocêncio Maluku Utara United Actif 107 / 120 40% 2 28.07.2027 -
Carlos Eduardo Mirassol Actif 111 / 124 40% 3 28.07.2027 -
Lazar Romanic Kashima Antlers Actif 108 / 113 40% 1 28.07.2027 -
Cohen Bramall Norwich City Actif 108 / 123 40% 1 26.07.2027 -
Kostas Galanopoulos Panathinaikos Actif 128 / 133 40% 1 26.07.2027 -
Egy Maulana Vikri Dewa United Actif 113 / 104 40% 2 21.07.2027 -
Gustavo Silva Grêmio Actif 122 / 130 40% 1 19.07.2027 -
Naoufel Zerhouni Maccabi Tel Aviv Actif 109 / 117 40% 1 18.07.2027 -
Felix Platte Köln Actif 107 / 108 40% 1 15.07.2027 -
Antonio Casas Venezia Actif 124 / 121 40% 1 08.07.2027 -
Vyacheslav Yakimov Fakel Actif 105 / 122 40% 2 04.07.2027 -
Mickel Miller Huddersfield Town Actif 100 / 116 40% 2 04.07.2027 -
Gleb Shevchenko Torpedo Moscow Actif 98 / 109 40% 2 02.07.2027 -
Macaulay Langstaff Millwall Actif 105 / 117 40% 1 26.06.2027 -
Timothé Nkada Standard Liege Actif 111 / 113 40% 1 25.06.2027 -
Vyacheslav Litvinov Sochi Actif 117 / 107 40% 2 24.06.2027 -
Victor Hernandez Santa Fe Actif 121 / 134 40% 5 24.06.2027 -
Pêpê Pafos Actif 109 / 121 40% 1 21.06.2027 -
Thom Haye Persib Actif 117 / 120 40% 2 19.06.2027 -
Sergio Rodelas Granada Actif 117 / 106 40% 1 19.06.2027 -
Mingiyan Beveev Baltika Actif 108 / 107 40% 2 15.06.2027 -
Dmitry Vasiljev Orenburg Actif 107 / 116 40% 6 14.06.2027 -
Cyriel Dessers Panathinaikos Actif 120 / 121 40% 1 14.06.2027 -
Marcos Astina Borneo Actif 121 / 121 40% 1 14.06.2027 -
Bojan Roganović Torpedo Moscow Actif 106 / 108 40% 1 31.05.2027 -
Mimeirhel Benita Heracles Actif 123 / 119 40% 1 29.05.2027 -
Francisco Perruzzi Aldosivi Actif 104 / 95 40% 1 29.05.2027 -
Leo Goglichidze Rodina Actif 125 / 115 40% 4 27.05.2027 -
Martim Cunha Porto Actif 95 / 118 40% 3 24.05.2027 -
Đorđe Pantelić Spartak Kostroma Actif 109 / 115 40% 2 22.05.2027 -
Carles Soria Málaga Actif 109 / 125 40% 1 20.05.2027 -
Rhys Walters Port Vale Actif 92 / 96 40% 1 20.05.2027 -
Jules Kalczynski Nimes Actif 96 / 104 40% 1 19.05.2027 -
Finn Inglethorpe Liverpool Actif 67 / 87 40% 1 19.05.2027 -
Maxim Mukhin Rostov Actif 125 / 104 40% 1 18.05.2027 -
Luka Andrade Montevideo City Torque Actif 88 / 101 40% 1 17.05.2027 -
Mohamed Touré Viktoria Plzen Actif 97 / 101 40% 1 17.05.2027 -
Manuel Rodríguez Millonarios Actif 95 / 90 40% 1 15.05.2027 -
Matteo Cichella Frosinone Actif 117 / 117 40% 1 13.05.2027 -
Alexandr Filin Baltika Actif 120 / 111 40% 1 13.05.2027 -
Rakhmatsho Rakhmatzoda Persijap Actif 92 / 95 30% 1 / 1m 12.05.2027 -
Víctor Guzmán Sporting CP Actif 105 / 110 40% 3 09.05.2027 -
Etsgar Cruz Ruch Actif 85 / 79 40% 2 09.05.2027 -
Omar Bautista Gerez Central Córdoba SdE Actif 99 / 95 40% 1 09.05.2027 -
Ítalo Ural Actif 104 / 106 40% 1 05.05.2027 -
Sergey Guzyuk Strogino Actif 54 / 63 40% 1 04.05.2027 -
José Mendes Sporting CP Actif 65 / 91 40% 1 04.05.2027 -
Riley Owen Stevenage Actif 103 / 112 40% 1 02.05.2027 -
Idar Shumakhov Dinamo Makhachkala Actif 93 / 106 40% 1 01.05.2027 -
Tobías Rubio Racing Club Actif 122 / 124 40% 1 28.04.2027 -
Noah Mokhtari Stade Brestois Actif 95 / 89 40% 1 27.04.2027 -
Samuele di Benedetto Twente Actif 101 / 117 40% 2 25.04.2027 -
Konstantin Aleksa Austria Wien Actif 105 / 110 40% 1 25.04.2027 -
Thanasis Karamanis Atromitos Actif 98 / 115 40% 2 24.04.2027 -
Matties Volckaert KAA Gent Actif 104 / 107 40% 1 21.04.2027 -
Wessel Kuhn PSV Actif 114 / 126 40% 2 19.04.2027 -
Júlio Romão Akhmat Grozny Actif 122 / 111 40% 2 19.04.2027 -
Kirill Cheburakov Rostov Actif 68 / 84 40% 2 16.04.2027 -
João Tavares Porto Actif 71 / 79 40% 2 16.04.2027 -
Nikolay Titkov Baltika Actif 101 / 115 40% 1 15.04.2027 -
Mario Ćurić Torpedo Moscow Actif 98 / 119 40% 1 13.04.2027 -
Luis Caicedo Trabzonspor Actif 106 / 122 40% 2 11.04.2027 -
David Martín Real Madrid Actif 74 / 90 40% 1 11.04.2027 -
Vladislav Malkevich Ural Actif 101 / 92 40% 1 09.04.2027 -
Luke Bolton Mansfield Town Actif 104 / 105 40% 1 09.04.2027 -
Eduardo Fernandes Benfica Actif 108 / 114 40% 2 08.04.2027 -
Dilan Neves Benfica Actif 83 / 89 40% 1 02.04.2027 -
Alexandr Goryachkin Strogino Actif 75 / 64 40% 1 02.04.2027 -
Artem Makarchuk Sochi Actif 122 / 111 40% 1 31.03.2027 -
Matty Warhurst Manchester City Actif 94 / 100 40% 1 31.03.2027 -
Kabiru Abdullahi Barau Actif 84 / 104 40% 1 31.03.2027 -
Vladimir Khubulov Dinamo Makhachkala Actif 97 / 95 40% 1 30.03.2027 -
Thijmen Goppel Bali United Actif 115 / 114 40% 1 25.03.2027 -
Danil Stepanov Torpedo Moscow Actif 103 / 95 40% 2 24.03.2027 -
Dylan Cabral Arsenal Actif 86 / 95 40% 1 24.03.2027 -
Pedro Lima Sporting CP Actif 106 / 116 40% 1 23.03.2027 -
Nahuel Olmedo Crawley Town Actif 81 / 75 40% 1 22.03.2027 -
Stanislav Magkeev Fakel Actif 114 / 116 40% 2 18.03.2027 -
Josen Escobar Patriotas Actif 116 / 127 40% 1 18.03.2027 -
Kelvin Neijenhuis Feyenoord Actif 98 / 115 40% 2 17.03.2027 -
Baris Dursun Trabzonspor Actif 58 / 63 40% 1 17.03.2027 -
Ilja Agapov Ufa Actif 117 / 112 40% 3 12.03.2027 -
Ceadach O'Neill Arsenal Actif 80 / 109 40% 1 09.03.2027 -
Iván Morales Argentinos Juniors Actif 105 / 108 40% 1 07.03.2027 -
Joseph Moulin RC Lens Actif 61 / 93 40% 1 04.03.2027 -
Ionuţ Nedelcearu Akron Actif 106 / 100 40% 1 02.03.2027 -
Saminu Abdullahi KAMAZ Actif 91 / 104 40% 1 27.02.2027 -
Garrik Levin Chelyabinsk Actif 108 / 104 40% 1 26.02.2027 -
Nazar Makeev Akron Actif 65 / 76 40% 1 24.02.2027 -
Stanislav Bukatov Salyut Actif 63 / 80 40% 1 24.02.2027 -
Elion Krosa Odd Actif 80 / 97 40% 1 23.02.2027 -
Sergey Gaiduk Salyut Actif 68 / 68 40% 3 22.02.2027 -
Nazif Inoussa Benfica Actif 75 / 82 40% 2 22.02.2027 -
David Kokoev Yenisey Actif 93 / 105 40% 2 20.02.2027 -
Ahmed Khaled Paralimni Actif 80 / 90 40% 1 20.02.2027 -
Tiago Pucciarelli IF Elfsborg Actif 88 / 92 40% 1 20.02.2027 -
Wonderson Yakubu Hapoel Raanana Actif 67 / 71 40% 1 17.02.2027 -
Danila Vedernikov Orenburg Actif 97 / 109 40% 1 13.02.2027 -
Agustín Mello Metallurg Actif 80 / 76 40% 1 04.02.2027 -
Ajay Matthews Millwall Actif 109 / 117 40% 1 25.01.2027 -
Alagie Wally Veres Actif 90 / 88 40% 1 20.01.2027 -